When you browse on this site, cookies collect data to enhance your experience and personalize the content and advertising you see.
Visit our Privacy Policy to learn more. By continuing to use the site, you agree to this use of cookies and data.
  • In United Kingdom
  • List of Countries
  • For 7 days
  • Water Temperature
  • Weather Map
  • Weather Widgets
  • user-avatar
    Login

    Hourly Weather Glasgow

    Today, 20 January, Monday

    Time Temperature Precipitation Wind Pressure Humidity
    00:00 +1°C° 0 mm 5 mps 778 mmHg 85%
    01:00 +1°C° 0 mm 4 mps 777 mmHg 83%
    02:00 +3°C° 0 mm 4 mps 777 mmHg 81%
    03:00 +3°C° 0 mm 4 mps 777 mmHg 79%
    04:00 +3°C° 0 mm 4 mps 777 mmHg 81%
    05:00 +2°C° 0 mm 5 mps 777 mmHg 83%
    06:00 +2°C° 0 mm 5 mps 777 mmHg 86%
    07:00 +2°C° 0 mm 6 mps 777 mmHg 88%
    08:00 +1°C° 0 mm 6 mps 777 mmHg 89%
    09:00 +1°C° 0 mm 6 mps 777 mmHg 91%
    10:00 +2°C° 0 mm 6 mps 777 mmHg 88%
    11:00 +5°C° 0 mm 5 mps 777 mmHg 84%
    12:00 +6°C° 0 mm 5 mps 777 mmHg 81%
    13:00 +5°C° 0 mm 5 mps 777 mmHg 83%
    14:00 +5°C° 0 mm 5 mps 776 mmHg 85%
    15:00 +5°C° 0 mm 4 mps 776 mmHg 87%
    16:00 +4°C° 0 mm 4 mps 776 mmHg 88%
    17:00 +3°C° 0 mm 4 mps 776 mmHg 89%
    18:00 +1°C° 0 mm 4 mps 776 mmHg 90%
    19:00 +1°C° 0 mm 4 mps 776 mmHg 89%
    20:00 +3°C° 0 mm 4 mps 776 mmHg 88%
    21:00 +3°C° 0 mm 4 mps 775 mmHg 88%
    22:00 +2°C° 0 mm 5 mps 775 mmHg 88%
    23:00 +3°C° 0 mm 5 mps 775 mmHg 88%

    Tomorrow, 21 January, Tuesday

    Time Temperature Precipitation Wind Pressure Humidity
    00:00 +4°C° 0 mm 6 mps 775 mmHg 88%
    01:00 +4°C° 0 mm 6 mps 775 mmHg 88%
    02:00 +5°C° 0 mm 6 mps 775 mmHg 88%
    03:00 +5°C° 0 mm 6 mps 775 mmHg 88%
    04:00 +6°C° 0 mm 5 mps 775 mmHg 89%
    05:00 +6°C° 0 mm 4 mps 775 mmHg 90%
    06:00 +6°C° 0 mm 4 mps 775 mmHg 92%
    07:00 +7°C° 0 mm 3 mps 775 mmHg 92%
    08:00 +7°C° 0 mm 2 mps 775 mmHg 92%
    09:00 +8°C° 0 mm 1 mps 775 mmHg 93%
    10:00 +8°C° 0 mm 2 mps 775 mmHg 91%
    11:00 +8°C° 0 mm 2 mps 775 mmHg 90%
    12:00 +9°C° 0 mm 2 mps 775 mmHg 88%
    13:00 +9°C° 0 mm 2 mps 775 mmHg 88%
    14:00 +9°C° 0 mm 2 mps 775 mmHg 89%
    15:00 +9°C° 0 mm 2 mps 774 mmHg 89%
    16:00 +9°C° 0 mm 2 mps 774 mmHg 90%
    17:00 +9°C° 0 mm 2 mps 774 mmHg 91%
    18:00 +8°C° 0 mm 2 mps 774 mmHg 92%
    19:00 +9°C° 0.1 mm 1 mps 774 mmHg 92%
    20:00 +9°C° 0.1 mm 1 mps 774 mmHg 93%
    21:00 +9°C° 0.1 mm 1 mps 775 mmHg 94%
    22:00 +9°C° 0 mm 1 mps 774 mmHg 93%
    23:00 +8°C° 0 mm 2 mps 774 mmHg 92%

    Day after tomorrow, 22 January, Wednesday

    Time Temperature Precipitation Wind Pressure Humidity
    00:00 +8°C° 0 mm 2 mps 774 mmHg 92%
    01:00 +9°C° 0 mm 2 mps 774 mmHg 91%
    02:00 +9°C° 0 mm 2 mps 774 mmHg 91%
    03:00 +9°C° 0 mm 2 mps 774 mmHg 90%
    04:00 +9°C° 0 mm 2 mps 774 mmHg 90%
    05:00 +9°C° 0 mm 3 mps 774 mmHg 89%
    06:00 +9°C° 0 mm 3 mps 774 mmHg 88%
    07:00 +9°C° 0 mm 3 mps 774 mmHg 89%
    08:00 +9°C° 0 mm 2 mps 774 mmHg 89%
    09:00 +9°C° 0 mm 2 mps 774 mmHg 89%
    10:00 +9°C° 0 mm 2 mps 774 mmHg 88%
    11:00 +10°C° 0 mm 2 mps 774 mmHg 87%
    12:00 +11°C° 0 mm 1 mps 774 mmHg 86%
    13:00 +11°C° 0 mm 1 mps 774 mmHg 86%
    14:00 +10°C° 0 mm 2 mps 774 mmHg 86%
    15:00 +10°C° 0 mm 2 mps 774 mmHg 86%
    16:00 +10°C° 0 mm 2 mps 774 mmHg 87%
    17:00 +10°C° 0 mm 2 mps 773 mmHg 88%
    18:00 +9°C° 0 mm 2 mps 773 mmHg 88%
    19:00 +9°C° 0 mm 2 mps 773 mmHg 88%
    20:00 +9°C° 0 mm 2 mps 773 mmHg 88%
    21:00 +9°C° 0 mm 2 mps 773 mmHg 88%
    22:00 +8°C° 0 mm 3 mps 772 mmHg 89%
    23:00 +8°C° 0 mm 3 mps 772 mmHg 89%

    23 January, Thursday

    Time Temperature Precipitation Wind Pressure Humidity
    00:00 +7°C° 0 mm 3 mps 772 mmHg 90%
    01:00 +6°C° 0 mm 4 mps 771 mmHg 90%
    02:00 +6°C° 0 mm 4 mps 771 mmHg 90%
    03:00 +6°C° 0 mm 4 mps 770 mmHg 90%
    04:00 +6°C° 0 mm 4 mps 769 mmHg 90%
    05:00 +5°C° 0 mm 4 mps 769 mmHg 89%
    06:00 +5°C° 0 mm 4 mps 768 mmHg 89%
    07:00 +5°C° 0 mm 4 mps 768 mmHg 89%
    08:00 +4°C° 0 mm 4 mps 768 mmHg 89%
    09:00 +4°C° 0 mm 4 mps 768 mmHg 90%
    10:00 +5°C° 0 mm 4 mps 767 mmHg 87%
    11:00 +6°C° 0 mm 4 mps 767 mmHg 85%
    12:00 +7°C° 0 mm 4 mps 766 mmHg 83%
    13:00 +7°C° 0 mm 4 mps 766 mmHg 83%
    14:00 +7°C° 0 mm 5 mps 765 mmHg 83%
    15:00 +7°C° 0 mm 5 mps 765 mmHg 83%
    16:00 +6°C° 0 mm 5 mps 764 mmHg 85%
    17:00 +5°C° 0 mm 6 mps 764 mmHg 86%
    18:00 +4°C° 0 mm 6 mps 763 mmHg 87%
    19:00 +4°C° 0 mm 6 mps 763 mmHg 87%
    20:00 +4°C° 0 mm 6 mps 763 mmHg 86%
    21:00 +4°C° 0 mm 6 mps 763 mmHg 86%
    22:00 +4°C° 0 mm 6 mps 762 mmHg 86%
    23:00 +4°C° 0 mm 6 mps 762 mmHg 86%

    24 January, Friday

    Time Temperature Precipitation Wind Pressure Humidity
    00:00 +6°C° 0 mm 5 mps 761 mmHg 87%
    01:00 +6°C° 0 mm 5 mps 761 mmHg 86%
    02:00 +6°C° 0 mm 5 mps 760 mmHg 86%
    03:00 +6°C° 0 mm 5 mps 760 mmHg 86%
    04:00 +6°C° 0.3 mm 5 mps 760 mmHg 86%
    05:00 +5°C° 0.3 mm 5 mps 760 mmHg 87%
    06:00 +5°C° 0.3 mm 5 mps 760 mmHg 88%
    07:00 +4°C° 0 mm 4 mps 760 mmHg 88%
    08:00 +3°C° 0 mm 4 mps 760 mmHg 87%
    09:00 +3°C° 0 mm 4 mps 760 mmHg 87%
    10:00 +4°C° 0 mm 4 mps 760 mmHg 83%
    11:00 +5°C° 0 mm 3 mps 760 mmHg 79%
    12:00 +7°C° 0 mm 3 mps 760 mmHg 76%
    13:00 +5°C° 0 mm 3 mps 760 mmHg 77%
    14:00 +5°C° 0 mm 3 mps 760 mmHg 79%
    15:00 +6°C° 0 mm 2 mps 760 mmHg 80%
    16:00 +4°C° 0 mm 3 mps 760 mmHg 82%
    17:00 +4°C° 0 mm 3 mps 759 mmHg 85%
    18:00 +3°C° 0 mm 4 mps 759 mmHg 87%
    19:00 +3°C° 0 mm 3 mps 759 mmHg 88%
    20:00 +2°C° 0 mm 3 mps 759 mmHg 89%
    21:00 +2°C° 0 mm 3 mps 759 mmHg 90%
    22:00 +2°C° 0 mm 3 mps 758 mmHg 90%
    23:00 +1°C° 0 mm 4 mps 757 mmHg 90%

    25 January, Saturday

    Time Temperature Precipitation Wind Pressure Humidity
    00:00 +1°C° 0 mm 4 mps 757 mmHg 90%
    01:00 +1°C° 0 mm 4 mps 756 mmHg 89%
    02:00 +1°C° 0 mm 5 mps 755 mmHg 89%
    03:00 +2°C° 0 mm 5 mps 755 mmHg 88%
    04:00 +2°C° 0 mm 5 mps 754 mmHg 90%
    05:00 +3°C° 0 mm 6 mps 753 mmHg 92%
    06:00 +3°C° 0 mm 6 mps 752 mmHg 94%
    07:00 +4°C° 0 mm 7 mps 752 mmHg 92%
    08:00 +4°C° 0 mm 8 mps 751 mmHg 90%
    09:00 +4°C° 0 mm 8 mps 751 mmHg 89%
    10:00 +3°C° 0 mm 9 mps 750 mmHg 87%
    11:00 +5°C° 0 mm 10 mps 749 mmHg 85%
    12:00 +4°C° 0 mm 11 mps 748 mmHg 83%
    13:00 +4°C° 0.1 mm 11 mps 747 mmHg 83%
    14:00 +4°C° 0.1 mm 12 mps 745 mmHg 84%
    15:00 +4°C° 0.1 mm 13 mps 744 mmHg 84%
    16:00 +4°C° 0.2 mm 13 mps 742 mmHg 85%
    17:00 +4°C° 0.2 mm 13 mps 741 mmHg 86%
    18:00 +4°C° 0.2 mm 13 mps 739 mmHg 88%
    19:00 +3°C° 0.1 mm 11 mps 740 mmHg 83%
    20:00 +3°C° 0.1 mm 10 mps 740 mmHg 79%
    21:00 +4°C° 0.1 mm 8 mps 741 mmHg 74%
    22:00 +2°C° 0 mm 8 mps 741 mmHg 76%
    23:00 +1°C° 0 mm 8 mps 742 mmHg 78%
    Show more